Year,Month,Day,Hour,Minute,Value (Times are PST for temperature in C)
2012,07,11,01,14,12.40
2012,07,11,01,15,12.40
2012,07,11,01,16,12.40
2012,07,11,01,17,12.40
2012,07,11,01,18,12.40
2012,07,11,01,19,12.40
2012,07,11,01,20,12.40
2012,07,11,01,21,12.40
2012,07,11,01,22,12.40
2012,07,11,01,23,12.40
2012,07,11,01,24,12.40
2012,07,11,01,25,12.40
2012,07,11,01,26,12.40
2012,07,11,01,27,12.40
2012,07,11,01,28,12.40
2012,07,11,01,29,12.70
2012,07,11,01,30,12.70
2012,07,11,01,31,12.70
2012,07,11,01,32,12.70
2012,07,11,01,33,12.70
2012,07,11,01,34,12.70
2012,07,11,01,35,12.70
2012,07,11,01,36,12.70
2012,07,11,01,37,12.70
2012,07,11,01,38,12.70
2012,07,11,01,39,12.70
2012,07,11,01,40,12.70
2012,07,11,01,41,12.70
2012,07,11,01,42,12.70
2012,07,11,01,43,12.70
2012,07,11,01,44,12.50
2012,07,11,01,45,12.50
2012,07,11,01,46,12.50
2012,07,11,01,47,12.50
2012,07,11,01,48,12.50
2012,07,11,01,49,12.50
2012,07,11,01,50,12.50
2012,07,11,01,51,12.50
2012,07,11,01,52,12.50
2012,07,11,01,53,12.50
2012,07,11,01,54,12.50
2012,07,11,01,55,12.50
2012,07,11,01,56,12.50
2012,07,11,01,57,12.50
2012,07,11,01,58,12.50
2012,07,11,01,59,12.20
2012,07,11,02,00,12.20
2012,07,11,02,01,12.20
2012,07,11,02,02,12.20
2012,07,11,02,03,12.20
2012,07,11,02,04,12.20
2012,07,11,02,05,12.20
2012,07,11,02,06,12.20
2012,07,11,02,07,12.20
2012,07,11,02,08,12.20
2012,07,11,02,09,12.20
2012,07,11,02,10,12.20
2012,07,11,02,11,12.20
2012,07,11,02,12,12.20
2012,07,11,02,13,12.20
2012,07,11,02,14,11.50
2012,07,11,02,15,11.50
2012,07,11,02,16,11.50
2012,07,11,02,17,11.50
2012,07,11,02,18,11.50
2012,07,11,02,19,11.50
2012,07,11,02,20,11.50
2012,07,11,02,21,11.50
2012,07,11,02,22,11.50
2012,07,11,02,23,11.50
2012,07,11,02,24,11.50
2012,07,11,02,25,11.50
2012,07,11,02,26,11.50
2012,07,11,02,27,11.50
2012,07,11,02,28,11.50
2012,07,11,02,29,11.10
2012,07,11,02,30,11.10
2012,07,11,02,31,11.10
2012,07,11,02,32,11.10
2012,07,11,02,33,11.10
2012,07,11,02,34,11.10
2012,07,11,02,35,11.10
2012,07,11,02,36,11.10
2012,07,11,02,37,11.10
2012,07,11,02,38,11.10
2012,07,11,02,39,11.10
2012,07,11,02,40,11.10
2012,07,11,02,41,11.10
2012,07,11,02,42,11.10
2012,07,11,02,43,11.10
2012,07,11,02,44,11.40
2012,07,11,02,45,11.40
2012,07,11,02,46,11.40
2012,07,11,02,47,11.40
2012,07,11,02,48,11.40
2012,07,11,02,49,11.40
2012,07,11,02,50,11.40
2012,07,11,02,51,11.40
2012,07,11,02,52,11.40
2012,07,11,02,53,11.40
2012,07,11,02,54,11.40
2012,07,11,02,55,11.40
2012,07,11,02,56,11.40
2012,07,11,02,57,11.40
2012,07,11,02,58,11.40
2012,07,11,02,59,11.30
2012,07,11,03,00,11.30
2012,07,11,03,01,11.30
2012,07,11,03,02,11.30
2012,07,11,03,03,11.30
2012,07,11,03,04,11.30
2012,07,11,03,05,11.30
2012,07,11,03,06,11.30
2012,07,11,03,07,11.30
2012,07,11,03,08,11.30
2012,07,11,03,09,11.30
2012,07,11,03,10,11.30
2012,07,11,03,11,11.30
2012,07,11,03,12,11.30
2012,07,11,03,13,11.30
2012,07,11,03,14,11.30
2012,07,11,03,15,11.30
2012,07,11,03,16,11.30
2012,07,11,03,17,11.30
2012,07,11,03,18,11.30
2012,07,11,03,19,11.30
2012,07,11,03,20,11.30
2012,07,11,03,21,11.30
2012,07,11,03,22,11.30
2012,07,11,03,23,11.30
2012,07,11,03,24,11.30
2012,07,11,03,25,11.30
2012,07,11,03,26,11.30
2012,07,11,03,27,11.30
2012,07,11,03,28,11.30
2012,07,11,03,29,11.20
2012,07,11,03,30,11.20
2012,07,11,03,31,11.20
2012,07,11,03,32,11.20
2012,07,11,03,33,11.20
2012,07,11,03,34,11.20
2012,07,11,03,35,11.20
2012,07,11,03,36,11.20
2012,07,11,03,37,11.20
2012,07,11,03,38,11.20
2012,07,11,03,39,11.20
2012,07,11,03,40,11.20
2012,07,11,03,41,11.20
2012,07,11,03,42,11.20
2012,07,11,03,43,11.20
2012,07,11,03,44,11.30
2012,07,11,03,45,11.30
2012,07,11,03,46,11.30
2012,07,11,03,47,11.30
2012,07,11,03,48,11.30
2012,07,11,03,49,11.30
2012,07,11,03,50,11.30
2012,07,11,03,51,11.30
2012,07,11,03,52,11.30
2012,07,11,03,53,11.30
2012,07,11,03,54,11.30
2012,07,11,03,55,11.30
2012,07,11,03,56,11.30
2012,07,11,03,57,11.30
2012,07,11,03,58,11.30
2012,07,11,03,59,11.40
2012,07,11,04,00,11.40
2012,07,11,04,01,11.40
2012,07,11,04,02,11.40
2012,07,11,04,03,11.40
2012,07,11,04,04,11.40
2012,07,11,04,05,11.40
2012,07,11,04,06,11.40
2012,07,11,04,07,11.40
2012,07,11,04,08,11.40
2012,07,11,04,09,11.40
2012,07,11,04,10,11.40
2012,07,11,04,11,11.40
2012,07,11,04,12,11.40
2012,07,11,04,13,11.40
2012,07,11,04,14,11.50
2012,07,11,04,15,11.50
2012,07,11,04,16,11.50
2012,07,11,04,17,11.50
2012,07,11,04,18,11.50
2012,07,11,04,19,11.50
2012,07,11,04,20,11.50
2012,07,11,04,21,11.50
2012,07,11,04,22,11.50
2012,07,11,04,23,11.50
2012,07,11,04,24,11.50
2012,07,11,04,25,11.50
2012,07,11,04,26,11.50
2012,07,11,04,27,11.50
2012,07,11,04,28,11.50
2012,07,11,04,29,11.30
2012,07,11,04,30,11.30
2012,07,11,04,31,11.30
2012,07,11,04,32,11.30
2012,07,11,04,33,11.30
2012,07,11,04,34,11.30
2012,07,11,04,35,11.30
2012,07,11,04,36,11.30
2012,07,11,04,37,11.30
2012,07,11,04,38,11.30
2012,07,11,04,39,11.30
2012,07,11,04,40,11.30
2012,07,11,04,41,11.30
2012,07,11,04,42,11.30
2012,07,11,04,43,11.30
2012,07,11,04,44,11.10
2012,07,11,04,45,11.10
2012,07,11,04,46,11.10
2012,07,11,04,47,11.10
2012,07,11,04,48,11.10
2012,07,11,04,49,11.10
2012,07,11,04,50,11.10
2012,07,11,04,51,11.10
2012,07,11,04,52,11.10
2012,07,11,04,53,11.10
2012,07,11,04,54,11.10
2012,07,11,04,55,11.10
2012,07,11,04,56,11.10
2012,07,11,04,57,11.10
2012,07,11,04,58,11.10
2012,07,11,04,59,10.90
2012,07,11,05,00,10.90
2012,07,11,05,01,10.90
2012,07,11,05,02,10.90
2012,07,11,05,03,10.90
2012,07,11,05,04,10.90
2012,07,11,05,05,10.90
2012,07,11,05,06,10.90
2012,07,11,05,07,10.90
2012,07,11,05,08,10.90
2012,07,11,05,09,10.90
2012,07,11,05,10,10.90
2012,07,11,05,11,10.90
2012,07,11,05,12,10.90
2012,07,11,05,13,10.90
2012,07,11,05,14,10.80
2012,07,11,05,15,10.80
2012,07,11,05,16,10.80
2012,07,11,05,17,10.80
2012,07,11,05,18,10.80
2012,07,11,05,19,10.80
2012,07,11,05,20,10.80
2012,07,11,05,21,10.80
2012,07,11,05,22,10.80
2012,07,11,05,23,10.80
2012,07,11,05,24,10.80
2012,07,11,05,25,10.80
2012,07,11,05,26,10.80
2012,07,11,05,27,10.80
2012,07,11,05,28,10.80
2012,07,11,05,29,10.90
2012,07,11,05,30,10.90
2012,07,11,05,31,10.90
2012,07,11,05,32,10.90
2012,07,11,05,33,10.90
2012,07,11,05,34,10.90
2012,07,11,05,35,10.90
2012,07,11,05,36,10.90
2012,07,11,05,37,10.90
2012,07,11,05,38,10.90
2012,07,11,05,39,10.90
2012,07,11,05,40,10.90
2012,07,11,05,41,10.90
2012,07,11,05,42,10.90
2012,07,11,05,43,10.90
2012,07,11,05,44,10.80
2012,07,11,05,45,10.80
2012,07,11,05,46,10.80
2012,07,11,05,47,10.80
2012,07,11,05,48,10.80
2012,07,11,05,49,10.80
2012,07,11,05,50,10.80
2012,07,11,05,51,10.80
2012,07,11,05,52,10.80
2012,07,11,05,53,10.80
2012,07,11,05,54,10.80
2012,07,11,05,55,10.80
2012,07,11,05,56,10.80
2012,07,11,05,57,10.80
2012,07,11,05,58,10.80
2012,07,11,05,59,11.10
2012,07,11,06,00,11.10
2012,07,11,06,01,11.10
2012,07,11,06,02,11.10
2012,07,11,06,03,11.10
2012,07,11,06,04,11.10
2012,07,11,06,05,11.10
2012,07,11,06,06,11.10
2012,07,11,06,07,11.10
2012,07,11,06,08,11.10
2012,07,11,06,09,11.10
2012,07,11,06,10,11.10
2012,07,11,06,11,11.10
2012,07,11,06,12,11.10
2012,07,11,06,13,11.10
2012,07,11,06,14,10.90
2012,07,11,06,15,10.90
2012,07,11,06,16,10.90
2012,07,11,06,17,10.90
2012,07,11,06,18,10.90
2012,07,11,06,19,10.90
2012,07,11,06,20,10.90
2012,07,11,06,21,10.90
2012,07,11,06,22,10.90
2012,07,11,06,23,10.90
2012,07,11,06,24,10.90
2012,07,11,06,25,10.90
2012,07,11,06,26,10.90
2012,07,11,06,27,10.90
2012,07,11,06,28,10.90
2012,07,11,06,29,10.80
2012,07,11,06,30,10.80
2012,07,11,06,31,10.80
2012,07,11,06,32,10.80
2012,07,11,06,33,10.80
2012,07,11,06,34,10.80
2012,07,11,06,35,10.80
2012,07,11,06,36,10.80
2012,07,11,06,37,10.80
2012,07,11,06,38,10.80
2012,07,11,06,39,10.80
2012,07,11,06,40,10.80
2012,07,11,06,41,10.80
2012,07,11,06,42,10.80
2012,07,11,06,43,10.80
2012,07,11,06,44,10.70
2012,07,11,06,45,10.70
2012,07,11,06,46,10.70
2012,07,11,06,47,10.70
2012,07,11,06,48,10.70
2012,07,11,06,49,10.70
2012,07,11,06,50,10.70
2012,07,11,06,51,10.70
2012,07,11,06,52,10.70
2012,07,11,06,53,10.70
2012,07,11,06,54,10.70
2012,07,11,06,55,10.70
2012,07,11,06,56,10.70
2012,07,11,06,57,10.70
2012,07,11,06,58,10.70
2012,07,11,06,59,10.90
2012,07,11,07,00,10.90
2012,07,11,07,01,10.90
2012,07,11,07,02,10.90
2012,07,11,07,03,10.90
2012,07,11,07,04,10.90
2012,07,11,07,05,10.90
2012,07,11,07,06,10.90
2012,07,11,07,07,10.90
2012,07,11,07,08,10.90
2012,07,11,07,09,10.90
2012,07,11,07,10,10.90
2012,07,11,07,11,10.90
2012,07,11,07,12,10.90
2012,07,11,07,13,10.90
2012,07,11,07,14,10.80
2012,07,11,07,15,10.80
2012,07,11,07,16,10.80
2012,07,11,07,17,10.80
2012,07,11,07,18,10.80
2012,07,11,07,19,10.80
2012,07,11,07,20,10.80
2012,07,11,07,21,10.80
2012,07,11,07,22,10.80
2012,07,11,07,23,10.80
2012,07,11,07,24,10.80
2012,07,11,07,25,10.80
2012,07,11,07,26,10.80
2012,07,11,07,27,10.80
2012,07,11,07,28,10.80
2012,07,11,07,29,10.70
2012,07,11,07,30,10.70
2012,07,11,07,31,10.70
2012,07,11,07,32,10.70
2012,07,11,07,33,10.70
2012,07,11,07,34,10.70
2012,07,11,07,35,10.70
2012,07,11,07,36,10.70
2012,07,11,07,37,10.70
2012,07,11,07,38,10.70
2012,07,11,07,39,10.70
2012,07,11,07,40,10.70
2012,07,11,07,41,10.70
2012,07,11,07,42,10.70
2012,07,11,07,43,10.70
2012,07,11,07,44,10.70
2012,07,11,07,45,10.70
2012,07,11,07,46,10.70
2012,07,11,07,47,10.70
2012,07,11,07,48,10.70
2012,07,11,07,49,10.70
2012,07,11,07,50,10.70
2012,07,11,07,51,10.70
2012,07,11,07,52,10.70
2012,07,11,07,53,10.70
2012,07,11,07,54,10.70
2012,07,11,07,55,10.70
2012,07,11,07,56,10.70
2012,07,11,07,57,10.70
2012,07,11,07,58,10.70
2012,07,11,07,59,10.70
2012,07,11,08,00,10.70
2012,07,11,08,01,10.70
2012,07,11,08,02,10.70
2012,07,11,08,03,10.70
2012,07,11,08,04,10.70
2012,07,11,08,05,10.70
2012,07,11,08,06,10.70
2012,07,11,08,07,10.70
2012,07,11,08,08,10.70
2012,07,11,08,09,10.70
2012,07,11,08,10,10.70
2012,07,11,08,11,10.70
2012,07,11,08,12,10.70
2012,07,11,08,13,10.70
2012,07,11,08,14,10.70
2012,07,11,08,15,10.70
2012,07,11,08,16,10.70
2012,07,11,08,17,10.70
2012,07,11,08,18,10.70
2012,07,11,08,19,10.70
2012,07,11,08,20,10.70
2012,07,11,08,21,10.70
2012,07,11,08,22,10.70
2012,07,11,08,23,10.70
2012,07,11,08,24,10.70
2012,07,11,08,25,10.70
2012,07,11,08,26,10.70
2012,07,11,08,27,10.70
2012,07,11,08,28,10.70
2012,07,11,08,29,10.70
2012,07,11,08,30,10.70
2012,07,11,08,31,10.70
2012,07,11,08,32,10.70
2012,07,11,08,33,10.70
2012,07,11,08,34,10.70
2012,07,11,08,35,10.70
2012,07,11,08,36,10.70
2012,07,11,08,37,10.70
2012,07,11,08,38,10.70
2012,07,11,08,39,10.70
2012,07,11,08,40,10.70
2012,07,11,08,41,10.70
2012,07,11,08,42,10.70
2012,07,11,08,43,10.70
2012,07,11,08,44,10.80
2012,07,11,08,45,10.80
2012,07,11,08,46,10.80
2012,07,11,08,47,10.80
2012,07,11,08,48,10.80
2012,07,11,08,49,10.80
2012,07,11,08,50,10.80
2012,07,11,08,51,10.80
2012,07,11,08,52,10.80
2012,07,11,08,53,10.80
2012,07,11,08,54,10.80
2012,07,11,08,55,10.80
2012,07,11,08,56,10.80
2012,07,11,08,57,10.80
2012,07,11,08,58,10.80
2012,07,11,08,59,10.90
2012,07,11,09,00,10.90
2012,07,11,09,01,10.90
2012,07,11,09,02,10.90
2012,07,11,09,03,10.90
2012,07,11,09,04,10.90
2012,07,11,09,05,10.90
2012,07,11,09,06,10.90
2012,07,11,09,07,10.90
2012,07,11,09,08,10.90
2012,07,11,09,09,10.90
2012,07,11,09,10,10.90
2012,07,11,09,11,10.90
2012,07,11,09,12,10.90
2012,07,11,09,13,10.90
2012,07,11,09,14,10.90
2012,07,11,09,15,10.90
2012,07,11,09,16,10.90
2012,07,11,09,17,10.90
2012,07,11,09,18,10.90
2012,07,11,09,19,10.90
2012,07,11,09,20,10.90
2012,07,11,09,21,10.90
2012,07,11,09,22,10.90
2012,07,11,09,23,10.90
2012,07,11,09,24,10.90
2012,07,11,09,25,10.90
2012,07,11,09,26,10.90
2012,07,11,09,27,10.90
2012,07,11,09,28,10.90
2012,07,11,09,29,11.00
2012,07,11,09,30,11.00
2012,07,11,09,31,11.00
2012,07,11,09,32,11.00
2012,07,11,09,33,11.00
2012,07,11,09,34,11.00
2012,07,11,09,35,11.00
2012,07,11,09,36,11.00
2012,07,11,09,37,11.00
2012,07,11,09,38,11.00
2012,07,11,09,39,11.00
2012,07,11,09,40,11.00
2012,07,11,09,41,11.00
2012,07,11,09,42,11.00
2012,07,11,09,43,11.00
2012,07,11,09,44,10.90
2012,07,11,09,45,10.90
2012,07,11,09,46,10.90
2012,07,11,09,47,10.90
2012,07,11,09,48,10.90
2012,07,11,09,49,10.90
2012,07,11,09,50,10.90
2012,07,11,09,51,10.90
2012,07,11,09,52,10.90
2012,07,11,09,53,10.90
2012,07,11,09,54,10.90
2012,07,11,09,55,10.90
2012,07,11,09,56,10.90
2012,07,11,09,57,10.90
2012,07,11,09,58,10.90
2012,07,11,09,59,11.00
2012,07,11,10,00,11.00
2012,07,11,10,01,11.00
2012,07,11,10,02,11.00
2012,07,11,10,03,11.00
2012,07,11,10,04,11.00
2012,07,11,10,05,11.00
2012,07,11,10,06,11.00
2012,07,11,10,07,11.00
2012,07,11,10,08,11.00
2012,07,11,10,09,11.00
2012,07,11,10,10,11.00
2012,07,11,10,11,11.00
2012,07,11,10,12,11.00
2012,07,11,10,13,11.00
2012,07,11,10,14,11.10
2012,07,11,10,15,11.10
2012,07,11,10,16,11.10
2012,07,11,10,17,11.10
2012,07,11,10,18,11.10
2012,07,11,10,19,11.10
2012,07,11,10,20,11.10
2012,07,11,10,21,11.10
2012,07,11,10,22,11.10
2012,07,11,10,23,11.10
2012,07,11,10,24,11.10
2012,07,11,10,25,11.10
2012,07,11,10,26,11.10
2012,07,11,10,27,11.10
2012,07,11,10,28,11.10
2012,07,11,10,29,11.00
2012,07,11,10,30,11.00
2012,07,11,10,31,11.00
2012,07,11,10,32,11.00
2012,07,11,10,33,11.00
2012,07,11,10,34,11.00
2012,07,11,10,35,11.00
2012,07,11,10,36,11.00
2012,07,11,10,37,11.00
2012,07,11,10,38,11.00
2012,07,11,10,39,11.00
2012,07,11,10,40,11.00
2012,07,11,10,41,11.00
2012,07,11,10,42,11.00
2012,07,11,10,43,11.00
2012,07,11,10,44,11.20
2012,07,11,10,45,11.20
2012,07,11,10,46,11.20
2012,07,11,10,47,11.20
2012,07,11,10,48,11.20
2012,07,11,10,49,11.20
2012,07,11,10,50,11.20
2012,07,11,10,51,11.20
2012,07,11,10,52,11.20
2012,07,11,10,53,11.20
2012,07,11,10,54,11.20
2012,07,11,10,55,11.20
2012,07,11,10,56,11.20
2012,07,11,10,57,11.20
2012,07,11,10,58,11.20
2012,07,11,10,59,11.20
2012,07,11,11,00,11.20
2012,07,11,11,01,11.20
2012,07,11,11,02,11.20
2012,07,11,11,03,11.20
2012,07,11,11,04,11.20
2012,07,11,11,05,11.20
2012,07,11,11,06,11.20
2012,07,11,11,07,11.20
2012,07,11,11,08,11.20
2012,07,11,11,09,11.20
2012,07,11,11,10,11.20
2012,07,11,11,11,11.20
2012,07,11,11,12,11.20
2012,07,11,11,13,11.20
2012,07,11,11,14,11.10
2012,07,11,11,15,11.10
2012,07,11,11,16,11.10
2012,07,11,11,17,11.10
2012,07,11,11,18,11.10
2012,07,11,11,19,11.10
2012,07,11,11,20,11.10
2012,07,11,11,21,11.10
2012,07,11,11,22,11.10
2012,07,11,11,23,11.10
2012,07,11,11,24,11.10
2012,07,11,11,25,11.10
2012,07,11,11,26,11.10
2012,07,11,11,27,11.10
2012,07,11,11,28,11.10
2012,07,11,11,29,11.20
2012,07,11,11,30,11.20
2012,07,11,11,31,11.20
2012,07,11,11,32,11.20
2012,07,11,11,33,11.20
2012,07,11,11,34,11.20
2012,07,11,11,35,11.20
2012,07,11,11,36,11.20
2012,07,11,11,37,11.20
2012,07,11,11,38,11.20
2012,07,11,11,39,11.20
2012,07,11,11,40,11.20
2012,07,11,11,41,11.20
2012,07,11,11,42,11.20
2012,07,11,11,43,11.20
2012,07,11,11,44,11.30
2012,07,11,11,45,11.30
2012,07,11,11,46,11.30
2012,07,11,11,47,11.30
2012,07,11,11,48,11.30
2012,07,11,11,49,11.30
2012,07,11,11,50,11.30
2012,07,11,11,51,11.30
2012,07,11,11,52,11.30
2012,07,11,11,53,11.30
2012,07,11,11,54,11.30
2012,07,11,11,55,11.30
2012,07,11,11,56,11.30
2012,07,11,11,57,11.30
2012,07,11,11,58,11.30
2012,07,11,11,59,11.40
2012,07,11,12,00,11.40
2012,07,11,12,01,11.40
2012,07,11,12,02,11.40
2012,07,11,12,03,11.40
2012,07,11,12,04,11.40
2012,07,11,12,05,11.40
2012,07,11,12,06,11.40
2012,07,11,12,07,11.40
2012,07,11,12,08,11.40
2012,07,11,12,09,11.40
2012,07,11,12,10,11.40
2012,07,11,12,11,11.40
2012,07,11,12,12,11.40
2012,07,11,12,13,11.40
2012,07,11,12,14,11.50
2012,07,11,12,15,11.50
2012,07,11,12,16,11.50
2012,07,11,12,17,11.50
2012,07,11,12,18,11.50
2012,07,11,12,19,11.50
2012,07,11,12,20,11.50
2012,07,11,12,21,11.50
2012,07,11,12,22,11.50
2012,07,11,12,23,11.50
2012,07,11,12,24,11.50
2012,07,11,12,25,11.50
2012,07,11,12,26,11.50
2012,07,11,12,27,11.50
2012,07,11,12,28,11.50
2012,07,11,12,29,11.60
2012,07,11,12,30,11.60
2012,07,11,12,31,11.60
2012,07,11,12,32,11.60
2012,07,11,12,33,11.60
2012,07,11,12,34,11.60
2012,07,11,12,35,11.60
2012,07,11,12,36,11.60
2012,07,11,12,37,11.60
2012,07,11,12,38,11.60
2012,07,11,12,39,11.60
2012,07,11,12,40,11.60
2012,07,11,12,41,11.60
2012,07,11,12,42,11.60
2012,07,11,12,43,11.60
2012,07,11,12,44,11.40
2012,07,11,12,45,11.40
2012,07,11,12,46,11.40
2012,07,11,12,47,11.40
2012,07,11,12,48,11.40
2012,07,11,12,49,11.40
2012,07,11,12,50,11.40
2012,07,11,12,51,11.40
2012,07,11,12,52,11.40
2012,07,11,12,53,11.40
2012,07,11,12,54,11.40
2012,07,11,12,55,11.40
2012,07,11,12,56,11.40
2012,07,11,12,57,11.40
2012,07,11,12,58,11.40
2012,07,11,12,59,11.20
2012,07,11,13,00,11.20
2012,07,11,13,01,11.20
2012,07,11,13,02,11.20
2012,07,11,13,03,11.20
2012,07,11,13,04,11.20
2012,07,11,13,05,11.20
2012,07,11,13,06,11.20
2012,07,11,13,07,11.20
2012,07,11,13,08,11.20
2012,07,11,13,09,11.20
2012,07,11,13,10,11.20
2012,07,11,13,11,11.20
2012,07,11,13,12,11.20
2012,07,11,13,13,11.20
2012,07,11,13,14,11.20
2012,07,11,13,15,11.20
2012,07,11,13,16,11.20
2012,07,11,13,17,11.20
2012,07,11,13,18,11.20
2012,07,11,13,19,11.20
2012,07,11,13,20,11.20
2012,07,11,13,21,11.20
2012,07,11,13,22,11.20
2012,07,11,13,23,11.20
2012,07,11,13,24,11.20
2012,07,11,13,25,11.20
2012,07,11,13,26,11.20
2012,07,11,13,27,11.20
2012,07,11,13,28,11.20
2012,07,11,13,29,11.40
2012,07,11,13,30,11.40
2012,07,11,13,31,11.40
2012,07,11,13,32,11.40
2012,07,11,13,33,11.40
2012,07,11,13,34,11.40
2012,07,11,13,35,11.40
2012,07,11,13,36,11.40
2012,07,11,13,37,11.40
2012,07,11,13,38,11.40
2012,07,11,13,39,11.40
2012,07,11,13,40,11.40
2012,07,11,13,41,11.40
2012,07,11,13,42,11.40
2012,07,11,13,43,11.40
2012,07,11,13,44,11.40
2012,07,11,13,45,11.40
2012,07,11,13,46,11.40
2012,07,11,13,47,11.40
2012,07,11,13,48,11.40
2012,07,11,13,49,11.40
2012,07,11,13,50,11.40
2012,07,11,13,51,11.40
2012,07,11,13,52,11.40
2012,07,11,13,53,11.40
2012,07,11,13,54,11.40
2012,07,11,13,55,11.40
2012,07,11,13,56,11.40
2012,07,11,13,57,11.40
2012,07,11,13,58,11.40
2012,07,11,13,59,12.20
2012,07,11,14,00,12.20
2012,07,11,14,01,12.20
2012,07,11,14,02,12.20
2012,07,11,14,03,12.20
2012,07,11,14,04,12.20
2012,07,11,14,05,12.20
2012,07,11,14,06,12.20
2012,07,11,14,07,12.20
2012,07,11,14,08,12.20
2012,07,11,14,09,12.20
2012,07,11,14,10,12.20
2012,07,11,14,11,12.20
2012,07,11,14,12,12.20
2012,07,11,14,13,12.20
2012,07,11,14,14,12.00
2012,07,11,14,15,12.00
2012,07,11,14,16,12.00
2012,07,11,14,17,12.00
2012,07,11,14,18,12.00
2012,07,11,14,19,12.00
2012,07,11,14,20,12.00
2012,07,11,14,21,12.00
2012,07,11,14,22,12.00
2012,07,11,14,23,12.00
2012,07,11,14,24,12.00
2012,07,11,14,25,12.00
2012,07,11,14,26,12.00
2012,07,11,14,27,12.00
2012,07,11,14,28,12.00
2012,07,11,14,29,12.20
2012,07,11,14,30,12.20
2012,07,11,14,31,12.20
2012,07,11,14,32,12.20
2012,07,11,14,33,12.20
2012,07,11,14,34,12.20
2012,07,11,14,35,12.20
2012,07,11,14,36,12.20
2012,07,11,14,37,12.20
2012,07,11,14,38,12.20
2012,07,11,14,39,12.20
2012,07,11,14,40,12.20
2012,07,11,14,41,12.20
2012,07,11,14,42,12.20
2012,07,11,14,43,12.20
2012,07,11,14,44,12.20
2012,07,11,14,45,12.20
2012,07,11,14,46,12.20
2012,07,11,14,47,12.20
2012,07,11,14,48,12.20
2012,07,11,14,49,12.20
2012,07,11,14,50,12.20
2012,07,11,14,51,12.20
2012,07,11,14,52,12.20
2012,07,11,14,53,12.20
2012,07,11,14,54,12.20
2012,07,11,14,55,12.20
2012,07,11,14,56,12.20
2012,07,11,14,57,12.20
2012,07,11,14,58,12.20
2012,07,11,14,59,12.40
2012,07,11,15,00,12.40
2012,07,11,15,01,12.40
2012,07,11,15,02,12.40
2012,07,11,15,03,12.40
2012,07,11,15,04,12.40
2012,07,11,15,05,12.40
2012,07,11,15,06,12.40
2012,07,11,15,07,12.40
2012,07,11,15,08,12.40
2012,07,11,15,09,12.40
2012,07,11,15,10,12.40
2012,07,11,15,11,12.40
2012,07,11,15,12,12.40
2012,07,11,15,13,12.40
2012,07,11,15,14,12.30
2012,07,11,15,15,12.30
2012,07,11,15,16,12.30
2012,07,11,15,17,12.30
2012,07,11,15,18,12.30
2012,07,11,15,19,12.30
2012,07,11,15,20,12.30
2012,07,11,15,21,12.30
2012,07,11,15,22,12.30
2012,07,11,15,23,12.30
2012,07,11,15,24,12.30
2012,07,11,15,25,12.30
2012,07,11,15,26,12.30
2012,07,11,15,27,12.30
2012,07,11,15,28,12.30
2012,07,11,15,29,11.70
2012,07,11,15,30,11.70
2012,07,11,15,31,11.70
2012,07,11,15,32,11.70
2012,07,11,15,33,11.70
2012,07,11,15,34,11.70
2012,07,11,15,35,11.70
2012,07,11,15,36,11.70
2012,07,11,15,37,11.70
2012,07,11,15,38,11.70
2012,07,11,15,39,11.70
2012,07,11,15,40,11.70
2012,07,11,15,41,11.70
2012,07,11,15,42,11.70
2012,07,11,15,43,11.70
2012,07,11,15,44,11.60
2012,07,11,15,45,11.60
2012,07,11,15,46,11.60
2012,07,11,15,47,11.60
2012,07,11,15,48,11.60
2012,07,11,15,49,11.60
2012,07,11,15,50,11.60
2012,07,11,15,51,11.60
2012,07,11,15,52,11.60
2012,07,11,15,53,11.60
2012,07,11,15,54,11.60
2012,07,11,15,55,11.60
2012,07,11,15,56,11.60
2012,07,11,15,57,11.60
2012,07,11,15,58,11.60
2012,07,11,15,59,11.70
2012,07,11,16,00,11.70
2012,07,11,16,01,11.70
2012,07,11,16,02,11.70
2012,07,11,16,03,11.70
2012,07,11,16,04,11.70
2012,07,11,16,05,11.70
2012,07,11,16,06,11.70
2012,07,11,16,07,11.70
2012,07,11,16,08,11.70
2012,07,11,16,09,11.70
2012,07,11,16,10,11.70
2012,07,11,16,11,11.70
2012,07,11,16,12,11.70
2012,07,11,16,13,11.70
2012,07,11,16,14,11.50
2012,07,11,16,15,11.50
2012,07,11,16,16,11.50
2012,07,11,16,17,11.50
2012,07,11,16,18,11.50
2012,07,11,16,19,11.50
2012,07,11,16,20,11.50
2012,07,11,16,21,11.50
2012,07,11,16,22,11.50
2012,07,11,16,23,11.50
2012,07,11,16,24,11.50
2012,07,11,16,25,11.50
2012,07,11,16,26,11.50
2012,07,11,16,27,11.50
2012,07,11,16,28,11.50
2012,07,11,16,29,11.50
2012,07,11,16,30,11.50
2012,07,11,16,31,11.50
2012,07,11,16,32,11.50
2012,07,11,16,33,11.50
2012,07,11,16,34,11.50
2012,07,11,16,35,11.50
2012,07,11,16,36,11.50
2012,07,11,16,37,11.50
2012,07,11,16,38,11.50
2012,07,11,16,39,11.50
2012,07,11,16,40,11.50
2012,07,11,16,41,11.50
2012,07,11,16,42,11.50
2012,07,11,16,43,11.50
2012,07,11,16,44,11.50
2012,07,11,16,45,11.50
2012,07,11,16,46,11.50
2012,07,11,16,47,11.50
2012,07,11,16,48,11.50
2012,07,11,16,49,11.50
2012,07,11,16,50,11.50
2012,07,11,16,51,11.50
2012,07,11,16,52,11.50
2012,07,11,16,53,11.50
2012,07,11,16,54,11.50
2012,07,11,16,55,11.50
2012,07,11,16,56,11.50
2012,07,11,16,57,11.50
2012,07,11,16,58,11.50
2012,07,11,16,59,11.80
2012,07,11,17,00,11.80
2012,07,11,17,01,11.80
2012,07,11,17,02,11.80
2012,07,11,17,03,11.80
2012,07,11,17,04,11.80
2012,07,11,17,05,11.80
2012,07,11,17,06,11.80
2012,07,11,17,07,11.80
2012,07,11,17,08,11.80
2012,07,11,17,09,11.80
2012,07,11,17,10,11.80
2012,07,11,17,11,11.80
2012,07,11,17,12,11.80
2012,07,11,17,13,11.80
2012,07,11,17,14,11.70
2012,07,11,17,15,11.70
2012,07,11,17,16,11.70
2012,07,11,17,17,11.70
2012,07,11,17,18,11.70
2012,07,11,17,19,11.70
2012,07,11,17,20,11.70
2012,07,11,17,21,11.70
2012,07,11,17,22,11.70
2012,07,11,17,23,11.70
2012,07,11,17,24,11.70
2012,07,11,17,25,11.70
2012,07,11,17,26,11.70
2012,07,11,17,27,11.70
2012,07,11,17,28,11.70
2012,07,11,17,29,11.70
2012,07,11,17,30,11.70
2012,07,11,17,31,11.70
2012,07,11,17,32,11.70
2012,07,11,17,33,11.70
2012,07,11,17,34,11.70
2012,07,11,17,35,11.70
2012,07,11,17,36,11.70
2012,07,11,17,37,11.70
2012,07,11,17,38,11.70
2012,07,11,17,39,11.70
2012,07,11,17,40,11.70
2012,07,11,17,41,11.70
2012,07,11,17,42,11.70
2012,07,11,17,43,11.70
2012,07,11,17,44,11.70
2012,07,11,17,45,11.70
2012,07,11,17,46,11.70
2012,07,11,17,47,11.70
2012,07,11,17,48,11.70
2012,07,11,17,49,11.70
2012,07,11,17,50,11.70
2012,07,11,17,51,11.70
2012,07,11,17,52,11.70
2012,07,11,17,53,11.70
2012,07,11,17,54,11.70
2012,07,11,17,55,11.70
2012,07,11,17,56,11.70
2012,07,11,17,57,11.70
2012,07,11,17,58,11.70
2012,07,11,17,59,11.30
2012,07,11,18,00,11.30
2012,07,11,18,01,11.30
2012,07,11,18,02,11.30
2012,07,11,18,03,11.30
2012,07,11,18,04,11.30
2012,07,11,18,05,11.30
2012,07,11,18,06,11.30
2012,07,11,18,07,11.30
2012,07,11,18,08,11.30
2012,07,11,18,09,11.30
2012,07,11,18,10,11.30
2012,07,11,18,11,11.30
2012,07,11,18,12,11.30
2012,07,11,18,13,11.30
2012,07,11,18,14,11.40
2012,07,11,18,15,11.40
2012,07,11,18,16,11.40
2012,07,11,18,17,11.40
2012,07,11,18,18,11.40
2012,07,11,18,19,11.40
2012,07,11,18,20,11.40
2012,07,11,18,21,11.40
2012,07,11,18,22,11.40
2012,07,11,18,23,11.40
2012,07,11,18,24,11.40
2012,07,11,18,25,11.40
2012,07,11,18,26,11.40
2012,07,11,18,27,11.40
2012,07,11,18,28,11.40
2012,07,11,18,29,11.40
2012,07,11,18,30,11.40
2012,07,11,18,31,11.40
2012,07,11,18,32,11.40
2012,07,11,18,33,11.40